Independence Municipal Airport
Sunday 2:55 PM
Temperature75° (75°/47°)
Dew Point46°
Relative Humidity35
%
Visibility10
mi
Pressure1024.7
mb
Wind DirectionSW
220°
Wind Speed9
mph
Precipitation Today0.00"

Last 30 Observations

Time PresWx Temp DP Feels RH% Vsby Pressure Ceiling Direction Speed 1h Precip
2:35 PM 10
mi
0.00"
2:15 PM 74° 46° 36
%
10
mi
1025.4
mb
W
260°
3
mph
0.00"
1:55 PM 74° 46° 37
%
10
mi
1025.4
mb
Calm 0.00"
1:35 PM 74° 46° 37
%
10
mi
1025.7
mb
S
190°
3
mph
0.00"
1:15 PM 73° 46° 39
%
10
mi
1025.7
mb
SE
130°
6
mph
0.00"
12:55 PM 72° 45° 38
%
10
mi
1026.1
mb
Calm 0.00"
12:35 PM 71° 43° 37
%
10
mi
1026.4
mb
W
270°
7
mph
0.00"
12:15 PM 71° 44° 39
%
10
mi
1026.4
mb
SSW
210°
7
mph
0.00"
11:55 AM 70° 43° 38
%
10
mi
1026.8
mb
Calm 0.00"
11:35 AM 70° 45° 41
%
10
mi
1026.8
mb
SSE
160°
6
mph
0.00"
11:15 AM 69° 44° 42
%
10
mi
1026.8
mb
SSE
150°
7
mph
0.00"
10:55 AM 68° 45° 44
%
10
mi
1027.1
mb
SE
140°
9
mph
0.00"
10:35 AM 67° 48° 51
%
10
mi
1027.1
mb
SE
130°
9
mph
0.00"
10:15 AM 65° 49° 55
%
10
mi
1027.4
mb
SSE
150°
7
mph
0.00"
9:35 AM 63° 49° 60
%
10
mi
1027.4
mb
SSE
150°
7
mph
0.00"
9:15 AM 61° 48° 62
%
10
mi
1027.4
mb
SE
140°
9
mph
0.00"
8:55 AM 60° 48° 66
%
10
mi
1027.4
mb
ESE
120°
9
mph
0.00"
8:35 AM 59° 47° 64
%
10
mi
1027.4
mb
ESE
120°
8
mph
0.00"
8:15 AM 57° 46° 64
%
10
mi
1027.1
mb
ESE
120°
10
mph
0.00"
7:55 AM 57° 45° 65
%
10
mi
1027.1
mb
ESE
110°
11
mph
0.00"
7:35 AM 56° 44° 66
%
10
mi
1026.8
mb
E
100°
10
mph
0.00"
7:15 AM 55° 45° 69
%
10
mi
1026.8
mb
E
100°
7
mph
0.00"
6:55 AM 53° 43° 69
%
10
mi
1026.8
mb
E
90°
6
mph
0.00"
6:35 AM 51° 44° 75
%
10
mi
1026.4
mb
E
80°
3
mph
0.00"
6:15 AM 49° 43° 47°78
%
10
mi
1026.1
mb
E
80°
6
mph
0.00"
5:55 AM 48° 43° 45°84
%
10
mi
1026.1
mb
E
80°
6
mph
0.00"
5:35 AM 48° 44° 47°88
%
10
mi
1025.7
mb
E
80°
3
mph
0.00"
5:15 AM 48° 45° 47°87
%
10
mi
1025.7
mb
E
80°
3
mph
0.00"
4:55 AM 47° 44° 90
%
10
mi
1025.4
mb
Calm 0.00"
4:35 AM 47° 44° 89
%
10
mi
1025.7
mb
Calm 0.00"